Location: Az?znagar
(16.8373°N, 80.5091°E)
Time: 23:23:22
(UTC+00:00)

Nadezhda 4 Rocket - Pass Details

Date: 12 July 2022
Orbit: 949 x 992 km, 82.9° (Epoch: 09 August)

Event Time Altitude Azimuth Distance (km) Brightness Sun altitude
Exits shadow 23:03:59 - 193° (SSW) 2,874 6.1 -15.5°
Reaches altitude 10° 23:04:28 10° 194° (SSW) 2,697 5.9 -15.4°
Maximum altitude 23:10:34 64° 275° (W) 1,055 4.0 -14.1°
Drops below altitude 10° 23:16:37 10° 356° (N) 2,677 6.6 -12.8°
Sets 23:19:08 0° 359° (N) 3,620 7.4 -12.3°
